When you browse on this site, cookies collect data to enhance your experience and personalize the content and advertising you see.
Visit our Privacy Policy to learn more. By continuing to use the site, you agree to this use of cookies and data.
  • In Latvia
  • List of Countries
  • For 7 days
  • Water Temperature
  • Weather Map
  • Weather Widgets
  • user-avatar
    Login

    Hourly Weather Iecava

    Today, 21 August, Wednesday

    Time Temperature Precipitation Wind Pressure Humidity
    00:00 +16°C° 0 mm 1 mps 765 mmHg 83%
    01:00 +15°C° 0 mm 0 mps 766 mmHg 82%
    02:00 +14°C° 0 mm 0 mps 766 mmHg 85%
    03:00 +14°C° 0 mm 0 mps 765 mmHg 85%
    04:00 +15°C° 0 mm 1 mps 765 mmHg 85%
    05:00 +15°C° 0 mm 1 mps 765 mmHg 86%
    06:00 +16°C° 0 mm 1 mps 765 mmHg 83%
    07:00 +18°C° 0 mm 1 mps 765 mmHg 80%
    08:00 +19°C° 0 mm 1 mps 765 mmHg 78%
    09:00 +16°C° 1.7 mm 1 mps 765 mmHg 82%
    10:00 +15°C° 1.7 mm 2 mps 765 mmHg 87%
    11:00 +13°C° 1.7 mm 3 mps 765 mmHg 92%
    12:00 +14°C° 2.1 mm 2 mps 765 mmHg 93%
    13:00 +14°C° 2.1 mm 2 mps 765 mmHg 94%
    14:00 +14°C° 2.1 mm 2 mps 765 mmHg 94%
    15:00 +15°C° 0.1 mm 2 mps 765 mmHg 91%
    16:00 +16°C° 0.1 mm 1 mps 765 mmHg 87%
    17:00 +16°C° 0.1 mm 1 mps 765 mmHg 84%
    18:00 +16°C° 0 mm 1 mps 765 mmHg 87%
    19:00 +15°C° 0 mm 1 mps 766 mmHg 91%
    20:00 +14°C° 0 mm 1 mps 766 mmHg 94%
    21:00 +14°C° 0 mm 2 mps 766 mmHg 94%
    22:00 +13°C° 0 mm 2 mps 766 mmHg 95%
    23:00 +13°C° 0 mm 2 mps 766 mmHg 95%

    Tomorrow, 22 August, Thursday

    Time Temperature Precipitation Wind Pressure Humidity
    00:00 +13°C° 0 mm 2 mps 766 mmHg 96%
    01:00 +13°C° 0 mm 2 mps 767 mmHg 96%
    02:00 +12°C° 0 mm 2 mps 767 mmHg 96%
    03:00 +12°C° 0 mm 2 mps 767 mmHg 96%
    04:00 +12°C° 0 mm 2 mps 767 mmHg 96%
    05:00 +12°C° 0 mm 2 mps 767 mmHg 96%
    06:00 +13°C° 0 mm 2 mps 767 mmHg 93%
    07:00 +14°C° 0 mm 2 mps 767 mmHg 90%
    08:00 +16°C° 0 mm 3 mps 767 mmHg 87%
    09:00 +18°C° 0 mm 3 mps 768 mmHg 79%
    10:00 +19°C° 0 mm 3 mps 768 mmHg 70%
    11:00 +21°C° 0 mm 3 mps 768 mmHg 62%
    12:00 +21°C° 0 mm 3 mps 768 mmHg 60%
    13:00 +22°C° 0 mm 3 mps 768 mmHg 57%
    14:00 +24°C° 0 mm 3 mps 768 mmHg 55%
    15:00 +22°C° 0 mm 3 mps 768 mmHg 55%
    16:00 +22°C° 0 mm 3 mps 768 mmHg 55%
    17:00 +22°C° 0 mm 3 mps 768 mmHg 55%
    18:00 +20°C° 0 mm 2 mps 768 mmHg 62%
    19:00 +18°C° 0 mm 2 mps 768 mmHg 68%
    20:00 +15°C° 0 mm 1 mps 768 mmHg 75%
    21:00 +15°C° 0 mm 1 mps 768 mmHg 78%
    22:00 +14°C° 0 mm 1 mps 768 mmHg 81%
    23:00 +13°C° 0 mm 1 mps 769 mmHg 84%

    Day after tomorrow, 23 August, Friday

    Time Temperature Precipitation Wind Pressure Humidity
    00:00 +13°C° 0 mm 1 mps 769 mmHg 84%
    01:00 +13°C° 0 mm 1 mps 769 mmHg 85%
    02:00 +12°C° 0 mm 1 mps 769 mmHg 86%
    03:00 +12°C° 0 mm 1 mps 769 mmHg 88%
    04:00 +12°C° 0 mm 2 mps 769 mmHg 90%
    05:00 +10°C° 0 mm 2 mps 768 mmHg 92%
    06:00 +13°C° 0 mm 2 mps 768 mmHg 85%
    07:00 +14°C° 0 mm 2 mps 769 mmHg 77%
    08:00 +16°C° 0 mm 2 mps 769 mmHg 70%
    09:00 +18°C° 0 mm 2 mps 769 mmHg 66%
    10:00 +19°C° 0 mm 3 mps 769 mmHg 62%
    11:00 +21°C° 0 mm 3 mps 769 mmHg 59%
    12:00 +22°C° 0 mm 3 mps 768 mmHg 57%
    13:00 +23°C° 0 mm 4 mps 768 mmHg 55%
    14:00 +25°C° 0 mm 4 mps 768 mmHg 53%
    15:00 +25°C° 0 mm 4 mps 768 mmHg 55%
    16:00 +24°C° 0 mm 3 mps 768 mmHg 58%
    17:00 +24°C° 0 mm 3 mps 768 mmHg 60%
    18:00 +21°C° 0 mm 3 mps 767 mmHg 67%
    19:00 +20°C° 0 mm 3 mps 767 mmHg 73%
    20:00 +18°C° 0 mm 2 mps 767 mmHg 80%
    21:00 +17°C° 0 mm 2 mps 767 mmHg 81%
    22:00 +17°C° 0 mm 2 mps 767 mmHg 83%
    23:00 +16°C° 0 mm 2 mps 767 mmHg 84%

    24 August, Saturday

    Time Temperature Precipitation Wind Pressure Humidity
    00:00 +16°C° 0 mm 2 mps 767 mmHg 84%
    01:00 +15°C° 0 mm 2 mps 767 mmHg 84%
    02:00 +14°C° 0 mm 3 mps 767 mmHg 85%
    03:00 +15°C° 0 mm 2 mps 767 mmHg 86%
    04:00 +14°C° 0 mm 2 mps 767 mmHg 86%
    05:00 +14°C° 0 mm 2 mps 767 mmHg 87%
    06:00 +14°C° 0 mm 3 mps 767 mmHg 82%
    07:00 +17°C° 0 mm 3 mps 767 mmHg 77%
    08:00 +18°C° 0 mm 3 mps 766 mmHg 72%
    09:00 +19°C° 0 mm 3 mps 766 mmHg 68%
    10:00 +21°C° 0 mm 3 mps 766 mmHg 64%
    11:00 +22°C° 0 mm 3 mps 766 mmHg 61%
    12:00 +23°C° 0 mm 4 mps 766 mmHg 58%
    13:00 +25°C° 0 mm 4 mps 766 mmHg 55%
    14:00 +26°C° 0 mm 4 mps 766 mmHg 52%
    15:00 +26°C° 0 mm 4 mps 766 mmHg 54%
    16:00 +26°C° 0 mm 4 mps 765 mmHg 55%
    17:00 +25°C° 0 mm 3 mps 765 mmHg 57%
    18:00 +22°C° 0 mm 3 mps 765 mmHg 64%
    19:00 +20°C° 0 mm 2 mps 765 mmHg 71%
    20:00 +18°C° 0 mm 2 mps 765 mmHg 78%
    21:00 +18°C° 0 mm 1 mps 766 mmHg 82%
    22:00 +16°C° 0 mm 1 mps 766 mmHg 86%
    23:00 +15°C° 0 mm 1 mps 766 mmHg 90%

    25 August, Sunday

    Time Temperature Precipitation Wind Pressure Humidity
    00:00 +15°C° 0 mm 1 mps 766 mmHg 91%
    01:00 +15°C° 0 mm 1 mps 766 mmHg 92%
    02:00 +14°C° 0 mm 1 mps 766 mmHg 93%
    03:00 +14°C° 0 mm 1 mps 766 mmHg 94%
    04:00 +14°C° 0 mm 1 mps 766 mmHg 95%
    05:00 +14°C° 0 mm 1 mps 766 mmHg 96%
    06:00 +15°C° 0 mm 1 mps 767 mmHg 91%
    07:00 +18°C° 0 mm 1 mps 767 mmHg 87%
    08:00 +19°C° 0 mm 1 mps 767 mmHg 82%
    09:00 +21°C° 0 mm 1 mps 767 mmHg 74%
    10:00 +22°C° 0 mm 1 mps 767 mmHg 66%
    11:00 +24°C° 0 mm 1 mps 768 mmHg 57%
    12:00 +24°C° 0 mm 1 mps 768 mmHg 55%
    13:00 +24°C° 0 mm 1 mps 767 mmHg 52%
    14:00 +25°C° 0 mm 1 mps 767 mmHg 49%
    15:00 +24°C° 0 mm 1 mps 767 mmHg 50%
    16:00 +24°C° 0 mm 1 mps 767 mmHg 50%
    17:00 +24°C° 0 mm 1 mps 767 mmHg 50%
    18:00 +22°C° 0 mm 1 mps 767 mmHg 59%
    19:00 +19°C° 0 mm 1 mps 767 mmHg 67%
    20:00 +16°C° 0 mm 1 mps 767 mmHg 75%
    21:00 +16°C° 0 mm 1 mps 767 mmHg 77%
    22:00 +15°C° 0 mm 1 mps 768 mmHg 79%
    23:00 +15°C° 0 mm 1 mps 768 mmHg 80%

    26 August, Monday

    Time Temperature Precipitation Wind Pressure Humidity
    00:00 +14°C° 0 mm 2 mps 768 mmHg 83%
    01:00 +14°C° 0 mm 2 mps 768 mmHg 85%
    02:00 +14°C° 0 mm 2 mps 768 mmHg 88%
    03:00 +13°C° 0 mm 2 mps 767 mmHg 88%
    04:00 +13°C° 0 mm 2 mps 767 mmHg 89%
    05:00 +13°C° 0 mm 2 mps 767 mmHg 90%
    06:00 +14°C° 0 mm 2 mps 767 mmHg 86%
    07:00 +16°C° 0 mm 2 mps 767 mmHg 82%
    08:00 +17°C° 0 mm 2 mps 766 mmHg 79%
    09:00 +19°C° 0 mm 2 mps 766 mmHg 74%
    10:00 +21°C° 0 mm 3 mps 766 mmHg 69%
    11:00 +24°C° 0 mm 3 mps 766 mmHg 65%
    12:00 +25°C° 0 mm 3 mps 765 mmHg 62%
    13:00 +25°C° 0 mm 3 mps 765 mmHg 60%
    14:00 +26°C° 0 mm 3 mps 764 mmHg 57%
    15:00 +26°C° 0 mm 3 mps 764 mmHg 58%
    16:00 +26°C° 0 mm 3 mps 764 mmHg 59%
    17:00 +25°C° 0 mm 3 mps 763 mmHg 60%
    18:00 +24°C° 0 mm 3 mps 763 mmHg 67%
    19:00 +21°C° 0 mm 2 mps 763 mmHg 75%
    20:00 +19°C° 0 mm 2 mps 762 mmHg 82%
    21:00 +18°C° 0 mm 2 mps 762 mmHg 83%
    22:00 +18°C° 0 mm 3 mps 762 mmHg 83%
    23:00 +17°C° 0 mm 3 mps 762 mmHg 84%
    Show more